This is the latest recevied weather packets stored in our database for station/object KD4EED. If no packets are shown the sender has not sent any weather packets the latest 10 day(s).
| Time | Temp. | Humidity | Pressure | Rain* | Wind** | Luminosity | Snow |
|---|---|---|---|---|---|---|---|
| 1787865740 | 35° C | 49% | 1008.5 hPa | - | - | 330 W/m² | - |
| 1787865436 | 35° C | 51% | 1008.8 hPa | - | - | 381 W/m² | - |
| 1787865136 | 35° C | 52% | 1008.9 hPa | - | - | 371 W/m² | - |
| 1787864833 | 35° C | 53% | 1009 hPa | - | - | 319 W/m² | - |
| 1787864527 | 34.44° C | 49% | 1008.8 hPa | - | - | 515 W/m² | - |
| 1787864227 | 34.44° C | 49% | 1008.8 hPa | - | - | 269 W/m² | - |
| 1787863921 | 33.89° C | 48% | 1008.8 hPa | - | - | 227 W/m² | - |
| 1787863620 | 33.89° C | 48% | 1008.6 hPa | - | - | 189 W/m² | - |
| 1787863314 | 34.44° C | 48% | 1008.8 hPa | - | - | 170 W/m² | - |
| 1787863010 | 34.44° C | 50% | 1008.7 hPa | - | - | 167 W/m² | - |
| 1787862705 | 34.44° C | 48% | 1008.8 hPa | - | - | 176 W/m² | - |
| 1787862400 | 34.44° C | 50% | 1009.2 hPa | - | - | 199 W/m² | - |
| 1787862096 | 34.44° C | 51% | 1009.1 hPa | - | - | 245 W/m² | - |
| 1787861795 | 34.44° C | 53% | 1009 hPa | - | - | 320 W/m² | - |
| 1787861493 | 33.89° C | 53% | 1009 hPa | - | - | 309 W/m² | - |
| 1787861189 | 33.89° C | 56% | 1009.1 hPa | - | - | 355 W/m² | - |
| 1787860887 | 33.33° C | 55% | 1009.3 hPa | - | - | 586 W/m² | - |
| 1787860582 | 32.78° C | 58% | 1009.2 hPa | - | - | 538 W/m² | - |
| 1787860277 | 32.78° C | 57% | 1009.4 hPa | - | - | 469 W/m² | - |
| 1787859973 | 32.78° C | 59% | 1009.3 hPa | - | - | 326 W/m² | - |
| 1787859668 | 32.78° C | 59% | 1009.5 hPa | - | - | 346 W/m² | - |
| 1787859368 | 32.78° C | 58% | 1009.6 hPa | - | - | 282 W/m² | - |
| 1787859063 | 32.78° C | 59% | 1009.6 hPa | - | - | 421 W/m² | - |
| 1787858759 | 32.78° C | 59% | 1009.8 hPa | - | - | 395 W/m² | - |
| 1787858455 | 32.22° C | 62% | 1009.8 hPa | - | - | 655 W/m² | - |
* Rain since midnight (hover to see other rain measurements)
** Current wind speed in m/s (hover to see current wind gust speed)